QPF
0.05 0.04 0.05 0.04 0.04 0.03 0.03 0.03 0.02 0.03 0.03 0.02 0.00 0.00 0.00 0.00 0.00 0.00 0.00 0.00 0.00 0.00 0.01 0.01 0.01 0.01 0.01 0.02 0.02 0.02 0.02 0.01 0.01 0.02 0.02 0.03 0.04 0.04 0.04 0.04 0.04 0.04 0.03
0.04 0.04 0.03 0.03 0.03 0.02 0.01 0.01 0.01 0.02 0.03 0.03 0.02 0.00 0.00 0.00 0.00 0.00 0.00 0.00 0.00 0.00 0.01 0.01 0.01 0.01 0.02 0.02 0.02 0.03 0.03 0.02 0.02 0.02 0.02 0.02 0.03 0.04 0.05 0.04 0.04 0.04 0.03
0.02 0.01 0.01 0.01 0.02 0.01 0.01 0.01 0.00 0.01 0.03 0.03 0.03 0.03 0.01 0.00 0.00 0.00 0.00 0.00 0.00 0.01 0.01 0.01 0.01 0.01 0.02 0.03 0.03 0.04 0.03 0.02 0.02 0.01 0.01 0.01 0.02 0.02 0.03 0.04 0.04 0.04 0.04
0.04 0.02 0.01 0.01 0.01 0.01 0.01 0.01 0.01 0.01 0.02 0.03 0.03 0.03 0.03 0.01 0.00 0.00 0.00 0.01 0.01 0.01 0.01 0.00 0.01 0.01 0.02 0.03 0.03 0.03 0.02 0.02 0.01 0.01 0.01 0.01 0.01 0.02 0.02 0.03 0.04 0.04 0.04
0.05 0.04 0.02 0.02 0.01 0.01 0.01 0.01 0.01 0.01 0.01 0.01 0.02 0.02 0.02 0.01 0.00 0.00 0.00 0.00 0.01 0.00 0.00 0.00 0.00 0.01 0.01 0.01 0.02 0.03 0.03 0.01 0.01 0.01 0.01 0.01 0.01 0.02 0.03 0.03 0.03 0.04 0.05
0.04 0.04 0.04 0.03 0.02 0.01 0.01 0.01 0.01 0.01 0.01 0.02 0.01 0.01 0.01 0.01 0.01 0.00 0.00 0.00 0.00 0.00 0.00 0.00 0.00 0.00 0.01 0.01 0.01 0.03 0.05 0.03 0.01 0.01 0.01 0.01 0.01 0.01 0.02 0.03 0.03 0.03 0.04
0.04 0.02 0.03 0.03 0.02 0.02 0.01 0.01 0.01 0.01 0.01 0.02 0.02 0.01 0.01 0.01 0.00 0.00 0.00 0.00 0.00 0.00 0.00 0.00 0.00 0.01 0.01 0.00 0.00 0.01 0.03 0.04 0.03 0.02 0.02 0.02 0.01 0.01 0.02 0.02 0.02 0.02 0.03
0.05 0.03 0.02 0.02 0.01 0.01 0.01 0.01 0.01 0.01 0.01 0.01 0.02 0.01 0.01 0.01 0.00 0.00 0.00 0.00 0.00 0.00 0.00 0.01 0.01 0.01 0.00 0.00 0.00 0.00 0.01 0.03 0.03 0.03 0.03 0.02 0.01 0.01 0.02 0.02 0.02 0.02 0.02
0.07 0.04 0.03 0.01 0.01 0.01 0.01 0.01 0.01 0.01 0.01 0.01 0.01 0.01 0.01 0.00 0.00 0.00 0.00 0.00 0.00 0.00 0.01 0.01 0.00 0.00 0.00 0.00 0.00 0.00 0.00 0.02 0.03 0.03 0.03 0.02 0.02 0.02 0.02 0.02 0.02 0.02 0.02
0.08 0.07 0.05 0.03 0.02 0.01 0.01 0.01 0.01 0.01 0.02 0.01 0.01 0.01 0.01 0.01 0.01 0.00 0.00 0.00 0.00 0.00 0.00 0.00 0.00 0.00 0.00 0.00 0.00 0.01 0.01 0.01 0.02 0.02 0.02 0.01 0.01 0.02 0.02 0.03 0.03 0.03 0.03
0.06 0.05 0.05 0.03 0.02 0.01 0.01 0.00 0.01 0.01 0.01 0.01 0.01 0.01 0.01 0.01 0.01 0.01 0.00 0.00 0.00 0.00 0.00 0.00 0.00 0.00 0.00 0.00 0.00 0.01 0.01 0.01 0.02 0.02 0.02 0.01 0.01 0.01 0.02 0.02 0.02 0.02 0.02
0.05 0.03 0.03 0.03 0.02 0.01 0.01 0.01 0.00 0.01 0.01 0.02 0.02 0.02 0.01 0.01 0.01 0.01 0.01 0.01 0.00 0.00 0.00 0.00 0.00 0.00 0.00 0.00 0.01 0.01 0.01 0.01 0.02 0.02 0.03 0.02 0.01 0.01 0.01 0.01 0.01 0.01 0.01
0.04 0.03 0.02 0.02 0.02 0.01 0.00 0.00 0.00 0.01 0.01 0.02 0.02 0.02 0.02 0.02 0.01 0.02 0.02 0.03 0.02 0.02 0.01 0.01 0.01 0.01 0.01 0.01 0.01 0.02 0.02 0.02 0.02 0.03 0.03 0.02 0.01 0.01 0.00 0.01 0.01 0.02 0.02
0.02 0.03 0.03 0.01 0.02 0.01 0.01 0.00 0.00 0.00 0.01 0.01 0.01 0.01 0.02 0.02 0.02 0.02 0.02 0.03 0.02 0.02 0.01 0.01 0.01 0.01 0.01 0.01 0.01 0.02 0.01 0.02 0.02 0.02 0.02 0.01 0.01 0.00 0.00 0.00 0.01 0.01 0.02
0.01 0.01 0.03 0.03 0.02 0.02 0.01 0.01 0.00 0.00 0.01 0.01 0.01 0.01 0.01 0.01 0.01 0.01 0.02 0.02 0.03 0.02 0.01 0.01 0.01 0.01 0.01 0.01 0.02 0.02 0.01 0.02 0.02 0.02 0.01 0.01 0.01 0.00 0.00 0.00 0.00 0.00 0.01
0.00 0.00 0.01 0.02 0.03 0.03 0.02 0.02 0.01 0.00 0.00 0.00 0.00 0.01 0.01 0.01 0.01 0.01 0.01 0.01 0.01 0.02 0.02 0.01 0.01 0.01 0.01 0.01 0.02 0.01 0.02 0.02 0.02 0.02 0.01 0.01 0.01 0.00 0.00 0.00 0.00 0.00 0.00
0.01 0.00 0.00 0.00 0.02 0.03 0.03 0.03 0.02 0.01 0.00 0.00 0.00 0.00 0.00 0.01 0.01 0.01 0.01 0.01 0.01 0.01 0.01 0.01 0.01 0.01 0.01 0.01 0.01 0.01 0.01 0.01 0.01 0.01 0.01 0.01 0.00 0.00 0.00 0.00 0.01 0.01 0.01
0.01 0.01 0.00 0.00 0.00 0.01 0.02 0.03 0.03 0.02 0.01 0.01 0.00 0.00 0.00 0.00 0.01 0.02 0.02 0.02 0.02 0.02 0.01 0.01 0.01 0.01 0.01 0.01 0.01 0.01 0.01 0.01 0.01 0.01 0.01 0.01 0.00 0.00 0.00 0.00 0.00 0.01 0.01
0.01 0.01 0.00 0.00 0.00 0.01 0.01 0.02 0.02 0.03 0.02 0.01 0.01 0.00 0.00 0.00 0.00 0.01 0.02 0.02 0.02 0.02 0.02 0.02 0.02 0.01 0.01 0.01 0.01 0.01 0.01 0.01 0.01 0.01 0.01 0.00 0.00 0.00 0.00 0.00 0.00 0.00 0.00
0.01 0.01 0.01 0.00 0.01 0.01 0.01 0.01 0.01 0.02 0.02 0.02 0.01 0.01 0.00 0.00 0.00 0.00 0.01 0.01 0.02 0.02 0.02 0.02 0.02 0.01 0.01 0.01 0.01 0.01 0.01 0.01 0.01 0.01 0.01 0.00 0.00 0.00 0.00 0.00 0.00 0.00 0.00
0.01 0.01 0.01 0.01 0.01 0.01 0.01 0.00 0.01 0.01 0.02 0.02 0.02 0.01 0.01 0.00 0.00 0.01 0.00 0.00 0.00 0.01 0.01 0.01 0.01 0.01 0.01 0.01 0.01 0.01 0.01 0.01 0.01 0.01 0.00 0.00 0.00 0.00 0.00 0.00 0.00 0.00 0.00
0.01 0.01 0.01 0.01 0.01 0.01 0.01 0.00 0.01 0.01 0.00 0.01 0.01 0.01 0.01 0.01 0.00 0.00 0.01 0.01 0.01 0.00 0.01 0.01 0.01 0.01 0.01 0.01 0.01 0.01 0.01 0.01 0.01 0.01 0.00 0.00 0.00 0.00 0.00 0.00 0.00 0.00 0.00
0.00 0.01 0.01 0.01 0.01 0.01 0.01 0.00 0.00 0.00 0.00 0.00 0.00 0.01 0.01 0.01 0.01 0.00 0.00 0.00 0.01 0.01 0.01 0.01 0.00 0.00 0.01 0.00 0.01 0.01 0.01 0.01 0.01 0.01 0.00 0.00 0.00 0.00 0.00 0.00 0.00 0.00 0.00
0.00 0.00 0.00 0.00 0.00 0.01 0.01 0.00 0.00 0.00 0.00 0.00 0.00 0.00 0.00 0.00 0.01 0.01 0.00 0.00 0.00 0.00 0.00 0.01 0.00 0.00 0.01 0.01 0.01 0.01 0.01 0.01 0.00 0.00 0.00 0.00 0.00 0.00 0.00 0.00 0.00 0.00 0.00
0.00 0.00 0.00 0.00 0.00 0.00 0.00 0.00 0.00 0.00 0.00 0.00 0.00 0.00 0.00 0.00 0.00 0.00 0.00 0.00 0.00 0.00 0.00 0.00 0.00 0.00 0.00 0.00 0.01 0.01 0.01 0.01 0.01 0.00 0.00 0.00 0.00 0.00 0.00 0.00 0.00 0.00 0.00
0.00 0.00 0.00 0.00 0.00 0.00 0.00 0.00 0.00 0.00 0.00 0.00 0.00 0.00 0.00 0.00 0.00 0.00 0.00 0.00 0.00 0.00 0.00 0.00 0.00 0.00 0.00 0.00 0.00 0.00 0.01 0.01 0.01 0.01 0.00 0.00 0.00 0.00 0.00 0.00 0.00 0.00 0.00
MSLP
1018.86 1018.94 1018.95 1018.90 1018.81 1018.73 1018.67 1018.66 1018.72 1018.83 1019.00 1019.21 1019.44 1019.68 1019.90 1020.10 1020.27 1020.39 1020.46 1020.47 1020.42 1020.32 1020.17 1019.99 1019.81 1019.64 1019.51 1019.41 1019.35 1019.32 1019.30 1019.27 1019.23 1019.17 1019.08 1018.97 1018.86 1018.74 1018.61 1018.47 1018.31 1018.12 1017.89
1018.97 1019.03 1019.03 1018.99 1018.93 1018.89 1018.88 1018.92 1019.02 1019.18 1019.39 1019.63 1019.88 1020.13 1020.37 1020.58 1020.75 1020.88 1020.97 1021.00 1020.97 1020.90 1020.78 1020.65 1020.50 1020.36 1020.23 1020.13 1020.06 1019.99 1019.93 1019.86 1019.79 1019.70 1019.60 1019.50 1019.40 1019.30 1019.20 1019.07 1018.92 1018.72 1018.47
1019.12 1019.16 1019.16 1019.14 1019.12 1019.12 1019.16 1019.26 1019.41 1019.60 1019.83 1020.09 1020.34 1020.59 1020.81 1021.01 1021.17 1021.29 1021.37 1021.41 1021.40 1021.36 1021.29 1021.19 1021.09 1020.98 1020.88 1020.79 1020.70 1020.61 1020.51 1020.40 1020.28 1020.16 1020.05 1019.94 1019.86 1019.78 1019.71 1019.61 1019.49 1019.31 1019.08
1019.30 1019.32 1019.33 1019.34 1019.36 1019.41 1019.51 1019.65 1019.83 1020.05 1020.28 1020.53 1020.77 1020.99 1021.19 1021.36 1021.50 1021.60 1021.67 1021.71 1021.71 1021.70 1021.66 1021.62 1021.56 1021.51 1021.44 1021.37 1021.28 1021.17 1021.04 1020.89 1020.72 1020.56 1020.42 1020.30 1020.21 1020.15 1020.10 1020.04 1019.95 1019.81 1019.61
1019.50 1019.52 1019.55 1019.58 1019.65 1019.74 1019.88 1020.05 1020.25 1020.46 1020.68 1020.90 1021.11 1021.30 1021.47 1021.60 1021.71 1021.80 1021.85 1021.89 1021.91 1021.92 1021.92 1021.92 1021.92 1021.92 1021.90 1021.86 1021.78 1021.66 1021.51 1021.32 1021.11 1020.90 1020.71 1020.56 1020.45 1020.38 1020.34 1020.31 1020.25 1020.15 1020.00
1019.72 1019.74 1019.78 1019.85 1019.95 1020.08 1020.24 1020.41 1020.61 1020.80 1021.00 1021.18 1021.35 1021.50 1021.63 1021.74 1021.83 1021.90 1021.95 1021.98 1022.01 1022.04 1022.08 1022.12 1022.17 1022.22 1022.25 1022.24 1022.19 1022.08 1021.91 1021.70 1021.45 1021.19 1020.95 1020.75 1020.60 1020.51 1020.45 1020.42 1020.39 1020.33 1020.21
1019.92 1019.95 1020.02 1020.11 1020.23 1020.38 1020.55 1020.72 1020.89 1021.06 1021.21 1021.35 1021.49 1021.61 1021.71 1021.80 1021.88 1021.94 1021.99 1022.03 1022.06 1022.10 1022.16 1022.23 1022.32 1022.40 1022.47 1022.51 1022.49 1022.40 1022.24 1022.01 1021.73 1021.44 1021.15 1020.89 1020.69 1020.56 1020.47 1020.43 1020.40 1020.35 1020.28
1020.08 1020.14 1020.22 1020.34 1020.49 1020.65 1020.81 1020.96 1021.10 1021.23 1021.35 1021.45 1021.56 1021.66 1021.75 1021.84 1021.92 1021.98 1022.03 1022.06 1022.09 1022.13 1022.18 1022.26 1022.36 1022.47 1022.57 1022.64 1022.65 1022.59 1022.46 1022.24 1021.96 1021.64 1021.32 1021.02 1020.77 1020.58 1020.46 1020.38 1020.33 1020.29 1020.24
1020.20 1020.28 1020.39 1020.53 1020.69 1020.86 1021.02 1021.15 1021.27 1021.37 1021.45 1021.53 1021.62 1021.72 1021.82 1021.91 1022.00 1022.06 1022.11 1022.13 1022.14 1022.15 1022.17 1022.23 1022.31 1022.41 1022.52 1022.61 1022.66 1022.64 1022.54 1022.36 1022.10 1021.80 1021.47 1021.15 1020.86 1020.63 1020.46 1020.34 1020.27 1020.21 1020.16
1020.25 1020.36 1020.51 1020.68 1020.86 1021.03 1021.19 1021.32 1021.42 1021.50 1021.57 1021.64 1021.73 1021.83 1021.94 1022.05 1022.15 1022.22 1022.25 1022.24 1022.21 1022.17 1022.14 1022.14 1022.18 1022.25 1022.34 1022.44 1022.51 1022.54 1022.49 1022.37 1022.16 1021.89 1021.59 1021.28 1020.98 1020.72 1020.52 1020.36 1020.25 1020.17 1020.09
1020.24 1020.39 1020.56 1020.76 1020.97 1021.16 1021.33 1021.46 1021.56 1021.64 1021.71 1021.79 1021.89 1022.01 1022.14 1022.26 1022.36 1022.43 1022.44 1022.40 1022.31 1022.21 1022.10 1022.02 1021.98 1022.00 1022.05 1022.14 1022.23 1022.29 1022.30 1022.24 1022.11 1021.91 1021.66 1021.38 1021.10 1020.84 1020.62 1020.43 1020.28 1020.16 1020.06
1020.16 1020.34 1020.55 1020.79 1021.02 1021.24 1021.43 1021.58 1021.70 1021.79 1021.88 1021.97 1022.09 1022.22 1022.36 1022.50 1022.60 1022.65 1022.64 1022.56 1022.42 1022.23 1022.05 1021.88 1021.75 1021.69 1021.70 1021.75 1021.84 1021.92 1021.99 1022.00 1021.95 1021.83 1021.65 1021.43 1021.19 1020.95 1020.72 1020.51 1020.33 1020.18 1020.04
1020.01 1020.23 1020.48 1020.74 1021.01 1021.26 1021.48 1021.66 1021.79 1021.91 1022.01 1022.13 1022.26 1022.40 1022.55 1022.69 1022.79 1022.83 1022.80 1022.67 1022.48 1022.24 1021.97 1021.72 1021.51 1021.37 1021.31 1021.32 1021.39 1021.49 1021.58 1021.65 1021.67 1021.63 1021.53 1021.38 1021.19 1020.98 1020.76 1020.55 1020.34 1020.16 1019.98
1019.79 1020.05 1020.33 1020.62 1020.92 1021.20 1021.44 1021.64 1021.81 1021.94 1022.06 1022.19 1022.33 1022.48 1022.63 1022.76 1022.86 1022.89 1022.83 1022.69 1022.47 1022.18 1021.87 1021.55 1021.28 1021.07 1020.95 1020.91 1020.94 1021.02 1021.12 1021.22 1021.29 1021.31 1021.28 1021.19 1021.05 1020.87 1020.67 1020.46 1020.24 1020.04 1019.83
1019.52 1019.80 1020.11 1020.43 1020.74 1021.04 1021.30 1021.52 1021.70 1021.84 1021.97 1022.10 1022.23 1022.38 1022.52 1022.65 1022.74 1022.76 1022.71 1022.57 1022.34 1022.05 1021.72 1021.38 1021.07 1020.81 1020.63 1020.53 1020.51 1020.56 1020.64 1020.74 1020.82 1020.88 1020.88 1020.83 1020.73 1020.59 1020.41 1020.20 1019.99 1019.77 1019.56
1019.22 1019.51 1019.83 1020.16 1020.48 1020.78 1021.05 1021.27 1021.45 1021.60 1021.72 1021.84 1021.96 1022.08 1022.21 1022.32 1022.41 1022.44 1022.40 1022.28 1022.09 1021.82 1021.51 1021.18 1020.86 1020.58 1020.37 1020.22 1020.14 1020.13 1020.17 1020.23 1020.30 1020.35 1020.36 1020.33 1020.25 1020.13 1019.96 1019.77 1019.56 1019.35 1019.14
1018.89 1019.20 1019.52 1019.84 1020.15 1020.44 1020.70 1020.91 1021.08 1021.22 1021.32 1021.42 1021.51 1021.61 1021.71 1021.80 1021.88 1021.92 1021.91 1021.84 1021.70 1021.49 1021.23 1020.95 1020.65 1020.38 1020.14 1019.95 1019.82 1019.75 1019.72 1019.73 1019.75 1019.76 1019.76 1019.72 1019.64 1019.52 1019.37 1019.19 1018.99 1018.79 1018.59
1018.58 1018.89 1019.20 1019.50 1019.80 1020.07 1020.31 1020.50 1020.65 1020.76 1020.84 1020.90 1020.96 1021.02 1021.09 1021.16 1021.23 1021.28 1021.30 1021.27 1021.19 1021.06 1020.87 1020.65 1020.40 1020.15 1019.91 1019.70 1019.52 1019.39 1019.30 1019.24 1019.20 1019.16 1019.12 1019.06 1018.97 1018.84 1018.69 1018.52 1018.34 1018.15 1017.96
1018.29 1018.60 1018.90 1019.19 1019.46 1019.71 1019.92 1020.09 1020.21 1020.30 1020.35 1020.38 1020.40 1020.42 1020.45 1020.49 1020.53 1020.58 1020.62 1020.63 1020.60 1020.53 1020.42 1020.26 1020.07 1019.86 1019.63 1019.41 1019.21 1019.03 1018.89 1018.77 1018.67 1018.58 1018.50 1018.41 1018.30 1018.16 1018.01 1017.84 1017.66 1017.48 1017.31
1018.06 1018.36 1018.65 1018.92 1019.17 1019.39 1019.58 1019.73 1019.83 1019.89 1019.92 1019.91 1019.89 1019.87 1019.86 1019.85 1019.87 1019.90 1019.93 1019.95 1019.96 1019.94 1019.88 1019.79 1019.65 1019.47 1019.28 1019.07 1018.86 1018.66 1018.48 1018.32 1018.18 1018.05 1017.94 1017.81 1017.68 1017.53 1017.37 1017.19 1017.01 1016.83 1016.67
1017.88 1018.17 1018.45 1018.70 1018.94 1019.14 1019.31 1019.45 1019.54 1019.58 1019.58 1019.55 1019.50 1019.44 1019.37 1019.32 1019.29 1019.27 1019.27 1019.29 1019.30 1019.30 1019.27 1019.21 1019.12 1018.98 1018.82 1018.64 1018.44 1018.24 1018.06 1017.88 1017.73 1017.58 1017.44 1017.30 1017.15 1016.99 1016.81 1016.62 1016.43 1016.23 1016.06
1017.76 1018.05 1018.31 1018.55 1018.77 1018.96 1019.12 1019.25 1019.33 1019.36 1019.35 1019.30 1019.22 1019.12 1019.00 1018.89 1018.80 1018.73 1018.68 1018.65 1018.63 1018.62 1018.60 1018.56 1018.49 1018.40 1018.27 1018.12 1017.96 1017.78 1017.62 1017.45 1017.30 1017.16 1017.02 1016.87 1016.71 1016.53 1016.33 1016.12 1015.90 1015.68 1015.47
1017.69 1017.97 1018.22 1018.45 1018.65 1018.83 1018.99 1019.10 1019.18 1019.21 1019.19 1019.13 1019.02 1018.88 1018.72 1018.55 1018.39 1018.25 1018.14 1018.05 1017.99 1017.94 1017.91 1017.86 1017.81 1017.74 1017.65 1017.54 1017.42 1017.29 1017.15 1017.02 1016.90 1016.77 1016.63 1016.48 1016.31 1016.12 1015.90 1015.66 1015.40 1015.15 1014.91
1017.66 1017.92 1018.16 1018.37 1018.56 1018.73 1018.87 1018.98 1019.05 1019.07 1019.04 1018.97 1018.84 1018.67 1018.47 1018.25 1018.03 1017.83 1017.64 1017.49 1017.38 1017.29 1017.22 1017.17 1017.12 1017.06 1017.00 1016.94 1016.86 1016.77 1016.68 1016.59 1016.49 1016.38 1016.25 1016.11 1015.93 1015.72 1015.47 1015.21 1014.92 1014.63 1014.35
1017.66 1017.90 1018.12 1018.31 1018.47 1018.62 1018.74 1018.83 1018.88 1018.89 1018.85 1018.76 1018.62 1018.42 1018.19 1017.94 1017.67 1017.41 1017.17 1016.97 1016.80 1016.67 1016.58 1016.51 1016.46 1016.42 1016.39 1016.35 1016.31 1016.26 1016.21 1016.15 1016.07 1015.98 1015.86 1015.71 1015.52 1015.29 1015.03 1014.73 1014.42 1014.10 1013.79
1017.67 1017.89 1018.08 1018.24 1018.37 1018.48 1018.57 1018.63 1018.66 1018.65 1018.59 1018.48 1018.32 1018.11 1017.85 1017.57 1017.28 1016.99 1016.72 1016.48 1016.28 1016.13 1016.01 1015.94 1015.89 1015.86 1015.84 1015.82 1015.80 1015.78 1015.75 1015.71 1015.64 1015.55 1015.43 1015.27 1015.08 1014.83 1014.55 1014.24 1013.90 1013.56 1013.23
Thickness
5672 5672 5672 5671 5670 5670 5670 5670 5671 5671 5671 5671 5670 5670 5669 5668 5666 5664 5662 5661 5659 5658 5658 5658 5658 5657 5656 5656 5655 5654 5654 5653 5652 5652 5651 5651 5651 5651 5651 5651 5651 5651 5651
5666 5666 5665 5665 5664 5664 5664 5665 5665 5665 5665 5664 5664 5663 5662 5661 5659 5658 5656 5653 5652 5651 5650 5650 5650 5649 5648 5648 5647 5646 5645 5645 5644 5644 5643 5643 5643 5644 5644 5644 5644 5644 5645
5659 5659 5659 5658 5658 5658 5658 5658 5658 5658 5658 5658 5657 5656 5655 5653 5652 5650 5648 5646 5645 5643 5642 5641 5640 5640 5639 5639 5638 5638 5637 5636 5635 5635 5635 5635 5635 5635 5636 5636 5637 5637 5637
5652 5652 5651 5651 5651 5651 5651 5651 5651 5650 5650 5649 5648 5648 5647 5646 5645 5643 5641 5639 5637 5635 5634 5632 5631 5630 5630 5629 5629 5628 5628 5627 5627 5626 5626 5626 5626 5627 5628 5628 5629 5629 5630
5645 5644 5644 5644 5644 5643 5643 5643 5643 5642 5641 5640 5641 5641 5640 5639 5637 5636 5634 5632 5630 5628 5625 5624 5622 5621 5619 5619 5618 5618 5618 5618 5618 5617 5617 5617 5617 5618 5619 5619 5620 5621 5621
5637 5637 5636 5636 5635 5635 5634 5634 5634 5634 5633 5633 5634 5633 5632 5631 5630 5628 5626 5624 5622 5620 5617 5615 5613 5611 5610 5608 5608 5608 5608 5608 5608 5608 5608 5608 5608 5609 5609 5610 5611 5612 5612
5629 5629 5628 5628 5627 5626 5625 5625 5625 5625 5624 5624 5623 5623 5623 5624 5622 5620 5618 5616 5613 5611 5609 5607 5604 5602 5600 5599 5597 5597 5597 5598 5598 5599 5598 5598 5598 5599 5600 5601 5601 5602 5603
5621 5621 5620 5620 5619 5618 5617 5616 5616 5615 5615 5615 5612 5611 5610 5611 5612 5612 5609 5607 5605 5602 5600 5597 5594 5592 5591 5588 5587 5586 5586 5587 5588 5588 5588 5588 5589 5589 5590 5591 5592 5593 5593
5613 5613 5612 5611 5611 5610 5609 5607 5606 5605 5604 5605 5604 5601 5598 5598 5598 5600 5600 5597 5595 5593 5590 5588 5585 5582 5580 5578 5577 5575 5575 5575 5577 5577 5578 5578 5578 5578 5579 5580 5581 5582 5583
5605 5604 5603 5603 5602 5601 5600 5599 5597 5596 5595 5593 5593 5592 5591 5589 5585 5586 5587 5587 5585 5583 5581 5579 5575 5573 5570 5568 5566 5565 5564 5564 5565 5566 5566 5567 5567 5567 5568 5569 5569 5570 5571
5596 5595 5594 5594 5592 5592 5591 5590 5588 5587 5586 5584 5583 5582 5581 5579 5578 5574 5573 5573 5572 5572 5571 5568 5565 5562 5560 5558 5556 5554 5553 5552 5553 5554 5554 5555 5555 5555 5555 5556 5556 5557 5558
5587 5586 5586 5585 5584 5583 5582 5581 5579 5578 5576 5575 5574 5572 5570 5568 5566 5563 5561 5561 5560 5560 5560 5558 5556 5553 5549 5547 5544 5542 5541 5541 5541 5541 5541 5542 5542 5541 5541 5542 5543 5544 5545
5578 5578 5577 5576 5575 5574 5573 5572 5570 5569 5567 5565 5564 5562 5561 5559 5556 5553 5550 5547 5547 5548 5549 5547 5545 5542 5539 5536 5533 5531 5530 5529 5528 5528 5528 5528 5528 5527 5528 5528 5529 5530 5531
5571 5571 5570 5568 5567 5566 5565 5563 5561 5559 5558 5555 5554 5552 5550 5548 5546 5543 5539 5535 5533 5534 5536 5535 5533 5530 5527 5525 5522 5520 5518 5517 5516 5516 5515 5515 5514 5514 5514 5515 5515 5516 5517
5565 5564 5562 5561 5559 5558 5556 5554 5552 5550 5548 5546 5543 5541 5539 5537 5535 5532 5529 5526 5521 5519 5521 5523 5520 5518 5515 5512 5510 5508 5506 5504 5503 5503 5502 5502 5501 5501 5501 5501 5502 5503 5504
5557 5555 5554 5552 5551 5549 5547 5545 5542 5540 5538 5536 5533 5531 5529 5527 5524 5521 5518 5515 5512 5508 5507 5509 5507 5505 5502 5500 5498 5496 5494 5492 5491 5490 5489 5489 5488 5487 5488 5488 5489 5490 5491
5548 5547 5545 5543 5541 5539 5537 5534 5532 5530 5528 5525 5523 5521 5519 5516 5513 5510 5507 5504 5501 5497 5494 5494 5493 5492 5489 5488 5486 5484 5482 5480 5479 5477 5476 5475 5475 5474 5475 5475 5475 5476 5477
5539 5538 5536 5534 5532 5530 5527 5525 5522 5520 5518 5515 5512 5510 5508 5505 5502 5500 5496 5493 5489 5486 5483 5481 5480 5478 5476 5475 5474 5472 5470 5468 5467 5465 5464 5463 5462 5461 5462 5462 5462 5462 5463
5531 5529 5526 5524 5522 5520 5517 5515 5512 5510 5508 5505 5502 5500 5497 5494 5491 5488 5485 5481 5478 5476 5473 5470 5468 5466 5464 5462 5461 5459 5457 5455 5454 5452 5451 5450 5449 5449 5448 5449 5449 5450 5450
5521 5519 5517 5514 5512 5509 5507 5504 5502 5499 5496 5494 5492 5489 5486 5483 5480 5477 5474 5471 5467 5463 5460 5458 5456 5453 5450 5449 5447 5444 5443 5441 5440 5440 5439 5437 5437 5436 5436 5436 5436 5437 5437
5512 5510 5507 5504 5502 5499 5497 5494 5491 5488 5485 5483 5480 5478 5476 5473 5470 5466 5463 5460 5456 5452 5448 5445 5443 5440 5438 5435 5433 5431 5429 5428 5427 5427 5425 5424 5423 5424 5423 5423 5423 5423 5424
5502 5499 5497 5494 5491 5489 5487 5484 5480 5477 5475 5472 5469 5467 5464 5462 5458 5456 5453 5450 5446 5442 5437 5433 5430 5427 5426 5423 5420 5418 5414 5412 5411 5413 5410 5411 5410 5410 5411 5411 5411 5411 5412
5492 5489 5487 5484 5481 5479 5476 5473 5470 5466 5463 5460 5457 5455 5453 5450 5447 5443 5440 5438 5435 5431 5428 5423 5419 5417 5414 5411 5408 5404 5401 5398 5397 5398 5396 5397 5398 5398 5399 5399 5398 5399 5400
5481 5478 5476 5473 5471 5469 5466 5463 5460 5456 5452 5450 5447 5444 5441 5438 5436 5432 5428 5425 5422 5419 5416 5412 5410 5407 5403 5399 5396 5393 5389 5386 5386 5385 5383 5382 5384 5385 5387 5387 5387 5387 5388
5470 5468 5465 5463 5460 5458 5456 5453 5450 5445 5442 5439 5436 5434 5431 5428 5425 5421 5417 5413 5410 5408 5405 5401 5398 5395 5391 5388 5384 5380 5376 5372 5372 5373 5370 5368 5370 5371 5374 5375 5375 5375 5375
5459 5457 5455 5452 5450 5448 5446 5443 5440 5435 5432 5429 5426 5423 5421 5417 5413 5409 5405 5401 5398 5396 5392 5390 5387 5383 5380 5376 5372 5368 5364 5360 5358 5359 5359 5356 5356 5355 5358 5362 5363 5363 5363